Stündliche Wetter Dabaizhuang

Heute, 26 Oktober, Montag

Zeit Temperatur Niederschläge Wind Luftdruck Luftfeuchtigkeit
00:00 +13°C° 0 mm 0 m/S 763 mmHg 36%
01:00 +13°C° 0 mm 0 m/S 763 mmHg 37%
02:00 +14°C° 0 mm 1 m/S 763 mmHg 38%
03:00 +13°C° 0 mm 1 m/S 763 mmHg 40%
04:00 +13°C° 0 mm 1 m/S 763 mmHg 41%
05:00 +12°C° 0 mm 1 m/S 763 mmHg 42%
06:00 +13°C° 0 mm 1 m/S 763 mmHg 41%
07:00 +14°C° 0 mm 1 m/S 763 mmHg 40%
08:00 +15°C° 0 mm 1 m/S 763 mmHg 38%
09:00 +18°C° 0 mm 1 m/S 763 mmHg 34%
10:00 +19°C° 0 mm 2 m/S 763 mmHg 31%
11:00 +21°C° 0 mm 2 m/S 763 mmHg 27%
12:00 +23°C° 0 mm 2 m/S 762 mmHg 24%
13:00 +24°C° 0 mm 3 m/S 762 mmHg 22%
14:00 +25°C° 0 mm 3 m/S 761 mmHg 20%
15:00 +24°C° 0 mm 3 m/S 761 mmHg 22%
16:00 +22°C° 0 mm 3 m/S 761 mmHg 23%
17:00 +21°C° 0 mm 2 m/S 761 mmHg 25%
18:00 +20°C° 0 mm 4 m/S 762 mmHg 23%
19:00 +19°C° 0 mm 5 m/S 763 mmHg 21%
20:00 +17°C° 0 mm 7 m/S 763 mmHg 20%
21:00 +16°C° 0 mm 6 m/S 764 mmHg 19%
22:00 +14°C° 0 mm 5 m/S 765 mmHg 17%
23:00 +13°C° 0 mm 5 m/S 766 mmHg 16%

Morgen, 27 Oktober, Dienstag

Zeit Temperatur Niederschläge Wind Luftdruck Luftfeuchtigkeit
00:00 +12°C° 0 mm 4 m/S 766 mmHg 17%
01:00 +11°C° 0 mm 4 m/S 766 mmHg 18%
02:00 +10°C° 0 mm 4 m/S 767 mmHg 19%
03:00 +8°C° 0 mm 4 m/S 767 mmHg 22%
04:00 +8°C° 0 mm 4 m/S 768 mmHg 25%
05:00 +7°C° 0 mm 4 m/S 768 mmHg 28%
06:00 +9°C° 0 mm 3 m/S 768 mmHg 29%
07:00 +9°C° 0 mm 3 m/S 769 mmHg 29%
08:00 +10°C° 0 mm 2 m/S 769 mmHg 30%
09:00 +12°C° 0 mm 3 m/S 769 mmHg 26%
10:00 +13°C° 0 mm 3 m/S 769 mmHg 23%
11:00 +16°C° 0 mm 3 m/S 769 mmHg 19%
12:00 +17°C° 0 mm 3 m/S 769 mmHg 18%
13:00 +17°C° 0 mm 3 m/S 768 mmHg 17%
14:00 +18°C° 0 mm 4 m/S 767 mmHg 15%
15:00 +17°C° 0 mm 3 m/S 767 mmHg 16%
16:00 +16°C° 0 mm 2 m/S 767 mmHg 17%
17:00 +15°C° 0 mm 2 m/S 767 mmHg 18%
18:00 +14°C° 0 mm 2 m/S 767 mmHg 19%
19:00 +13°C° 0 mm 2 m/S 768 mmHg 19%
20:00 +12°C° 0 mm 2 m/S 768 mmHg 20%
21:00 +12°C° 0 mm 2 m/S 768 mmHg 21%
22:00 +11°C° 0 mm 1 m/S 769 mmHg 22%
23:00 +11°C° 0 mm 1 m/S 769 mmHg 23%

übermorgen, 28 Oktober, Mittwoch

Zeit Temperatur Niederschläge Wind Luftdruck Luftfeuchtigkeit
00:00 +10°C° 0 mm 1 m/S 769 mmHg 24%
01:00 +10°C° 0 mm 1 m/S 769 mmHg 24%
02:00 +9°C° 0 mm 1 m/S 769 mmHg 25%
03:00 +9°C° 0 mm 1 m/S 769 mmHg 26%
04:00 +9°C° 0 mm 1 m/S 769 mmHg 27%
05:00 +8°C° 0 mm 1 m/S 769 mmHg 28%
06:00 +9°C° 0 mm 1 m/S 769 mmHg 27%
07:00 +9°C° 0 mm 1 m/S 770 mmHg 26%
08:00 +10°C° 0 mm 1 m/S 770 mmHg 25%
09:00 +12°C° 0 mm 1 m/S 770 mmHg 22%
10:00 +14°C° 0 mm 1 m/S 770 mmHg 19%
11:00 +15°C° 0 mm 0 m/S 770 mmHg 16%
12:00 +18°C° 0 mm 1 m/S 769 mmHg 15%
13:00 +19°C° 0 mm 1 m/S 769 mmHg 14%
14:00 +20°C° 0 mm 1 m/S 768 mmHg 12%
15:00 +19°C° 0 mm 1 m/S 768 mmHg 14%
16:00 +16°C° 0 mm 1 m/S 768 mmHg 16%
17:00 +15°C° 0 mm 1 m/S 768 mmHg 18%
18:00 +15°C° 0 mm 1 m/S 768 mmHg 19%
19:00 +13°C° 0 mm 0 m/S 769 mmHg 21%
20:00 +12°C° 0 mm 0 m/S 769 mmHg 22%
21:00 +12°C° 0 mm 0 m/S 769 mmHg 24%
22:00 +11°C° 0 mm 0 m/S 770 mmHg 25%
23:00 +12°C° 0 mm 1 m/S 770 mmHg 27%

29 Oktober, Donnerstag

Zeit Temperatur Niederschläge Wind Luftdruck Luftfeuchtigkeit
00:00 +10°C° 0 mm 0 m/S 770 mmHg 28%
01:00 +10°C° 0 mm 0 m/S 770 mmHg 29%
02:00 +10°C° 0 mm 0 m/S 770 mmHg 30%
03:00 +11°C° 0 mm 1 m/S 770 mmHg 31%
04:00 +10°C° 0 mm 1 m/S 770 mmHg 32%
05:00 +10°C° 0 mm 1 m/S 770 mmHg 33%
06:00 +10°C° 0 mm 1 m/S 770 mmHg 34%
07:00 +10°C° 0 mm 2 m/S 771 mmHg 35%
08:00 +10°C° 0 mm 2 m/S 771 mmHg 35%
09:00 +13°C° 0 mm 2 m/S 771 mmHg 32%
10:00 +15°C° 0 mm 2 m/S 771 mmHg 30%
11:00 +16°C° 0 mm 2 m/S 771 mmHg 27%
12:00 +17°C° 0 mm 2 m/S 770 mmHg 25%
13:00 +18°C° 0 mm 2 m/S 770 mmHg 23%
14:00 +20°C° 0 mm 1 m/S 770 mmHg 22%
15:00 +19°C° 0 mm 1 m/S 770 mmHg 24%
16:00 +18°C° 0 mm 1 m/S 770 mmHg 27%
17:00 +16°C° 0 mm 1 m/S 770 mmHg 29%
18:00 +15°C° 0 mm 1 m/S 770 mmHg 33%
19:00 +14°C° 0 mm 1 m/S 770 mmHg 37%
20:00 +13°C° 0 mm 2 m/S 771 mmHg 41%
21:00 +12°C° 0 mm 2 m/S 771 mmHg 46%
22:00 +10°C° 0 mm 2 m/S 771 mmHg 52%
23:00 +10°C° 0 mm 2 m/S 771 mmHg 57%

30 Oktober, Freitag

Zeit Temperatur Niederschläge Wind Luftdruck Luftfeuchtigkeit
00:00 +10°C° 0 mm 1 m/S 771 mmHg 62%
01:00 +9°C° 0 mm 1 m/S 771 mmHg 67%
02:00 +9°C° 0 mm 1 m/S 771 mmHg 72%
03:00 +9°C° 0 mm 1 m/S 771 mmHg 74%
04:00 +8°C° 0 mm 1 m/S 770 mmHg 75%
05:00 +8°C° 0 mm 1 m/S 770 mmHg 76%
06:00 +8°C° 0 mm 0 m/S 770 mmHg 73%
07:00 +9°C° 0 mm 0 m/S 771 mmHg 70%
08:00 +9°C° 0 mm 0 m/S 771 mmHg 67%
09:00 +12°C° 0 mm 1 m/S 771 mmHg 60%
10:00 +14°C° 0 mm 2 m/S 770 mmHg 53%
11:00 +16°C° 0 mm 2 m/S 770 mmHg 46%
12:00 +17°C° 0 mm 3 m/S 769 mmHg 43%
13:00 +18°C° 0 mm 3 m/S 769 mmHg 40%
14:00 +19°C° 0 mm 3 m/S 768 mmHg 36%
15:00 +18°C° 0 mm 3 m/S 768 mmHg 40%
16:00 +17°C° 0 mm 2 m/S 768 mmHg 43%
17:00 +16°C° 0 mm 2 m/S 768 mmHg 46%
18:00 +15°C° 0 mm 2 m/S 768 mmHg 51%
19:00 +14°C° 0 mm 2 m/S 768 mmHg 55%
20:00 +13°C° 0 mm 2 m/S 768 mmHg 59%
21:00 +13°C° 0 mm 1 m/S 768 mmHg 60%
22:00 +13°C° 0 mm 1 m/S 768 mmHg 62%
23:00 +12°C° 0 mm 1 m/S 768 mmHg 64%

31 Oktober, Samstag

Zeit Temperatur Niederschläge Wind Luftdruck Luftfeuchtigkeit
00:00 +12°C° 0 mm 1 m/S 768 mmHg 67%
01:00 +12°C° 0 mm 1 m/S 768 mmHg 70%
02:00 +12°C° 0 mm 1 m/S 767 mmHg 73%
03:00 +12°C° 0 mm 1 m/S 767 mmHg 73%
04:00 +13°C° 0 mm 1 m/S 767 mmHg 73%
05:00 +13°C° 0 mm 1 m/S 767 mmHg 73%
06:00 +13°C° 0 mm 1 m/S 767 mmHg 71%
07:00 +14°C° 0 mm 1 m/S 767 mmHg 69%
08:00 +14°C° 0 mm 1 m/S 768 mmHg 67%
09:00 +15°C° 0 mm 2 m/S 767 mmHg 58%
10:00 +16°C° 0 mm 3 m/S 767 mmHg 49%
11:00 +18°C° 0 mm 3 m/S 767 mmHg 40%
12:00 +18°C° 0 mm 3 m/S 767 mmHg 37%
13:00 +19°C° 0 mm 4 m/S 766 mmHg 34%
14:00 +19°C° 0 mm 4 m/S 765 mmHg 32%
Mehr zeigen

Wir brauchen deine Erlaubnis

Meteoprog und unser Service Anbieter werden persönliche Daten aufbewahren, so wie Cookies, Geräte Bezeichnung oder ähnliche Technologien von deinem Gerät und Prozess, so wie Persönliche Daten Inhalte und Werbungen, genauso wie social Media und den Verkehr zu analysieren.

  • Aufbewahrung und/oder Zugang zu deiner Geräte Informationen.

    Cookies, Geräte Bezeichnung oder andere Informationen, können aufbewahrt oder Zugang zu deinem Gerät erhalten, für den Grund, der oben angegeben wird.

  • Personalisierte Werbung und Inhalte, Messungen, Einblick in das Publikum und Produkt Entwicklung.

    Werbungen und Inhalte können personalisiert werden, basierend auf ein Profil. Mehr Daten können besser personalisierte Werbungen und Inhalte hinzufügen. Werbung und Inhalte können gezeigt und gemessen werden. Einblicke über das Publikum, welche die Werbung gesehen haben und den Inhalt, können abgeleitet werden. So wie Daten können genutzt werden, um es zu verbessern oder die Benutzer Erfahrung zu verbessern das System und die Software.

Wenn du “Ich stimme zu” klickst, erlaubst du uns, die Cookies zu benutzen die Geräte Bezeichnung, den Web oder ähnliche Technologien zu benutzen. Deine Settings, können in deinem Gerät bei deinem Browser geändert werden.

Für den bestimmten Zweck, berechtigten Interessen beruhen darauf, mehr als auf den Inhalt. Du kannst mehr darüber in unseren Privaten und Cookie Politik lesen.